ELECTRON DEB (49471 NORAD) Tracking and Keplerian Element Data

This shows tracking and keplerian element data for the satellite.

Feedback or suggestion? Click here.




ElementValue
Catalog49471
NameELECTRON DEB
Epoch Orbit458
Epoch Day351.65519238
Epoch Year2021
RAAN201.6302
Inclination42.0126
Eccentricity0.000771
Argument of Perigee128.9997
Mean Anonmoly231.1534
Mean Motion15.48803487
Decay Rate0.00055723
L11 49471U 21106C 21351.65519238 .00055723 00000+0 10080-2 0 9998
L22 49471 42.0126 201.6302 0007710 128.9997 231.1534 15.48803487 4580

Live tracking and technical data element details for ELECTRON DEB (NORAD 49471). ELECTRON DEB can be tracked NOW for your location showing map with azimuth and elevation plus other details from your city location.

Track the satellite on the map from your city or location and see movement details for azimuth, elevation, latitude, longitude, range, height, and movement on the map or in text.







IsCatalogInMostPopularTable: catalog: 49471, numindb: 6
Update: records affected: 1



GetName: 49471 ELECTRON DEB

Hit Count: updated at: Thu, 20 Jan 2022 17:50:47 GMT